Hourly Data Report for October 27, 2020

SHEARWATER RCS
NOVA SCOTIA
Current Station Operator: ECCC - MSC

44°37'47.000" N
63°30'48.000" W
24.00 m
8205092
71264
AAW

Download Data

Hourly Data (October 2020)
Hourly Data Report for October 27, 2020
TIME
LST
Temp Definition
°C
Dew Point Definition
°C
Rel Hum Definition
%
Precip. Amount Definition
mm

Wind Dir Definition
10's deg

Wind Spd Definition
km/h
Visibility Definition
km
Stn Press Definition
kPa
Hmdx Definition


Wind Chill Definition


Weather Definition


00:00 10.8 10.3 97 0.2 10 9   101.54     LegendNANA
01:00 11.3 10.9 97 0.0 11 7   101.41     LegendNANA
02:00 11.7 11.4 98 0.2 18 3   101.35     LegendNANA
03:00 12.0 11.8 99 0.0 16 10   101.20     LegendNANA
04:00 12.7 12.5 99 0.0 25 4   101.15     LegendNANA
05:00 13.7 13.6 99 0.0 25 8   101.09     LegendNANA
06:00 13.9 13.6 98 0.0 26 7   101.06     LegendNANA
07:00 13.7 13.1 97 0.4 28 7   101.05     LegendNANA
08:00 13.4 12.6 95 0.0 30 7   101.03     LegendNANA
09:00 12.4 11.0 91 0.0 32 14   101.09     LegendNANA
10:00 10.0 8.4 90 0.0 32 18   101.16     LegendNANA
11:00 9.0 7.3 90 0.0 33 18   101.08     LegendNANA
12:00 8.7 6.1 84 0.0 32 18   101.08     LegendNANA
13:00 8.7 5.8 82 0.0 32 21   101.08     LegendNANA
14:00 8.7 5.3 79 0.0 33 21   101.11     LegendNANA
15:00 8.0 3.9 75 0.0 33 19   101.17     LegendNANA
16:00 7.4 2.7 72 0.0 33 20   101.16     LegendNANA
17:00 6.6 2.2 73 0.0 34 16   101.21     LegendNANA
18:00 6.1 2.3 76 0.0 33 15   101.35     LegendNANA
19:00 4.3 2.3 86 0.2 33 19   101.36     LegendNANA
20:00 3.7 1.1 83 0.0 33 18   101.36     LegendNANA
21:00 3.2 0.3 81 0.0 33 13   101.41     LegendNANA
22:00 3.4 -0.4 76 0.0 32 13   101.55     LegendNANA
23:00 3.4 -2.0 67 0.0 33 15   101.49     LegendNANA

Notes on Data Quality.

Legend

  • E = Estimated
  • M = Missing
  • NA = Not Available*
  • [empty] = Indicates an unobserved value
Date modified: